| time (UTC) | temp C | wind direction | speed KPH | gust KPH | rain 1hr cm | rain 24hr cm | rain mn cm | humidity % | barometer mb |
| 20260504204855 | 22 | 124 | 3.2 | 16.1 | 0.00 | 0.00 | 0.00 | 38 | 1008.9 |
| 20260504204542 | 22 | 194 | 4.8 | 20.9 | 0.00 | 0.00 | 0.00 | 37 | 1009.1 |
| 20260504204354 | 22 | 207 | 3.2 | 16.1 | 0.00 | 0.00 | 0.00 | 37 | 1008.9 |
| 20260504203850 | 22 | 218 | 8.0 | 16.1 | 0.00 | 0.00 | 0.00 | 35 | 1009.1 |
| 20260504203345 | 22 | 197 | 9.7 | 17.7 | 0.00 | 0.00 | 0.00 | 36 | 1009.0 |
| 20260504203042 | 22 | 184 | 6.4 | 17.7 | 0.00 | 0.00 | 0.00 | 36 | 1009.3 |
| 20260504202840 | 22 | 202 | 9.7 | 17.7 | 0.00 | 0.00 | 0.00 | 36 | 1009.0 |
| 20260504202335 | 22 | 197 | 4.8 | 20.9 | 0.00 | 0.00 | 0.00 | 39 | 1009.1 |
| 20260504201540 | 22 | 238 | 8.0 | 22.5 | 0.00 | 0.00 | 0.00 | 34 | 1009.6 |
| 20260504201325 | 22 | 205 | 9.7 | 20.9 | 0.00 | 0.00 | 0.00 | 36 | 1009.3 |
| 20260504200826 | 22 | 271 | 9.7 | 20.9 | 0.00 | 0.00 | 0.00 | 37 | 1009.4 |
| 20260504200317 | 22 | 224 | 8.0 | 14.5 | 0.00 | 0.00 | 0.00 | 35 | 1009.3 |
| 20260504200049 | 22 | 200 | 6.4 | 19.3 | 0.00 | 0.00 | 0.00 | 35 | 1009.6 |
| 20260504195814 | 22 | 204 | 6.4 | 16.1 | 0.00 | 0.00 | 0.00 | 38 | 1009.5 |
| 20260504195311 | 23 | 225 | 9.7 | 16.1 | 0.00 | 0.00 | 0.00 | 35 | 1009.6 |
| 20260504194806 | 22 | 225 | 6.4 | 30.6 | 0.00 | 0.00 | 0.00 | 36 | 1009.4 |
| 20260504194557 | 22 | 196 | 6.4 | 30.6 | 0.00 | 0.00 | 0.00 | 35 | 1009.6 |
| 20260504193756 | 23 | 252 | 11.3 | 16.1 | 0.00 | 0.00 | 0.00 | 35 | 1009.6 |
| 20260504193251 | 23 | 229 | 9.7 | 14.5 | 0.00 | 0.00 | 0.00 | 34 | 1009.6 |
| 20260504193051 | 23 | 223 | 4.8 | 16.1 | 0.00 | 0.00 | 0.00 | 37 | 1009.8 |
| 20260504193005 | 23 | 208 | 3.2 | 16.1 | 0.00 | 0.00 | 0.00 | 38 | 1009.7 |
| 20260504192453 | 22 | 215 | 4.8 | 20.9 | 0.00 | 0.00 | 0.00 | 37 | 1009.6 |
| 20260504191730 | 22 | 215 | 8.0 | 20.9 | 0.00 | 0.00 | 0.00 | 36 | 1009.7 |
| 20260504191539 | 22 | 198 | 9.7 | 17.7 | 0.00 | 0.00 | 0.00 | 35 | 1010.0 |
| 20260504191229 | 22 | 197 | 9.7 | 16.1 | 0.00 | 0.00 | 0.00 | 38 | 1009.7 |
| 20260504190725 | 22 | 203 | 4.8 | 16.1 | 0.00 | 0.00 | 0.00 | 40 | 1009.8 |
| 20260504190447 | 22 | 230 | 6.4 | 16.1 | 0.00 | 0.00 | 0.00 | 36 | 1009.8 |
| 20260504190041 | 22 | 260 | 6.4 | 14.5 | 0.00 | 0.00 | 0.00 | 36 | 1010.1 |
| 20260504185715 | 22 | 260 | 6.4 | 20.9 | 0.00 | 0.00 | 0.00 | 35 | 1009.9 |
| 20260504184706 | 22 | 222 | 9.7 | 20.9 | 0.00 | 0.00 | 0.00 | 36 | 1010.1 |
| 20260504184541 | 21 | 207 | 8.0 | 22.5 | 0.00 | 0.00 | 0.00 | 35 | 1010.6 |
| 20260504184201 | 22 | 242 | 11.3 | 20.9 | 0.00 | 0.00 | 0.00 | 36 | 1010.2 |
| 20260504183658 | 22 | 169 | 9.7 | 20.9 | 0.00 | 0.00 | 0.00 | 38 | 1010.2 |
| 20260504183153 | 22 | 188 | 6.4 | 22.5 | 0.00 | 0.00 | 0.00 | 39 | 1010.2 |
| 20260504183038 | 21 | 145 | 6.4 | 27.4 | 0.00 | 0.00 | 0.00 | 38 | 1010.4 |
| 20260504182913 | 21 | 208 | 8.0 | 27.4 | 0.00 | 0.00 | 0.00 | 37 | 1010.3 |
| 20260504182322 | 21 | 340 | 9.7 | 20.9 | 0.00 | 0.00 | 0.00 | 37 | 1010.5 |
| 20260504182317 | 21 | 306 | 6.4 | 20.9 | 0.00 | 0.00 | 0.00 | 37 | 1010.6 |
| 20260504182309 | 22 | 229 | 11.3 | 27.4 | 0.00 | 0.00 | 0.00 | 37 | 1010.4 |
| 20260504182250 | 21 | 180 | 8.0 | 27.4 | 0.00 | 0.00 | 0.00 | 37 | 1010.3 |
| 20260504182229 | 21 | 201 | 11.3 | 27.4 | 0.00 | 0.00 | 0.00 | 36 | 1010.5 |
| 20260504175629 | 21 | 179 | 11.3 | 20.9 | 0.00 | 0.00 | 0.00 | 38 | 1010.7 |
| 20260504175121 | 21 | 206 | 9.7 | 20.9 | 0.00 | 0.00 | 0.00 | 38 | 1010.7 |
| 20260504174615 | 21 | 116 | 6.4 | 14.5 | 0.00 | 0.00 | 0.00 | 38 | 1010.7 |
| 20260504174544 | 21 | 146 | 4.8 | 19.3 | 0.00 | 0.00 | 0.00 | 39 | 1011.0 |
| 20260504174110 | 21 | 188 | 3.2 | 22.5 | 0.00 | 0.00 | 0.00 | 39 | 1010.8 |
| 20260504173101 | 21 | 212 | 11.3 | 17.7 | 0.00 | 0.00 | 0.00 | 37 | 1010.9 |
| 20260504173047 | 20 | 215 | 11.3 | 24.1 | 0.00 | 0.00 | 0.00 | 36 | 1011.3 |
| 20260504172603 | 20 | 244 | 8.0 | 17.7 | 0.00 | 0.00 | 0.00 | 39 | 1011.1 |
| 20260504172100 | 21 | 198 | 8.0 | 19.3 | 0.00 | 0.00 | 0.00 | 40 | 1011.1 |
| 20260504171553 | 21 | 202 | 8.0 | 19.3 | 0.00 | 0.00 | 0.00 | 38 | 1011.4 |
| 20260504171548 | 20 | 180 | 8.0 | 20.9 | 0.00 | 0.00 | 0.00 | 37 | 1011.6 |
| 20260504171047 | 21 | 162 | 6.4 | 14.5 | 0.00 | 0.00 | 0.00 | 40 | 1011.2 |
| 20260504170544 | 20 | 250 | 6.4 | 19.3 | 0.00 | 0.00 | 0.00 | 37 | 1011.5 |
| 20260504160208 | 20 | 184 | 4.8 | 17.7 | 0.00 | 0.00 | 0.00 | 42 | 1012.3 |
| 20260504150904 | 18 | 203 | 6.4 | 20.9 | 0.00 | 0.00 | 0.00 | 38 | 1012.8 |
| 20260504150400 | 18 | 192 | 9.7 | 20.9 | 0.00 | 0.00 | 0.00 | 38 | 1012.9 |
| 20260504141314 | 16 | 190 | 4.8 | 14.5 | 0.00 | 0.00 | 0.00 | 49 | 1013.1 |
| 20260504140809 | 16 | 223 | 6.4 | 14.5 | 0.00 | 0.00 | 0.00 | 50 | 1013.3 |
| 20260504140303 | 16 | 263 | 4.8 | 12.9 | 0.00 | 0.00 | 0.00 | 50 | 1013.3 |
| 20260504140104 | 15 | 178 | 3.2 | 14.5 | 0.00 | 0.00 | 0.00 | 51 | 1013.5 |
| 20260504130717 | 13 | 194 | 4.8 | 12.9 | 0.00 | 0.00 | 0.00 | 58 | 1013.8 |
| 20260504130214 | 13 | 203 | 6.4 | 12.9 | 0.00 | 0.00 | 0.00 | 59 | 1013.9 |
| 20260504120109 | 6 | 213 | 0.0 | 1.6 | 0.00 | 0.00 | 0.00 | 77 | 1014.1 |
| 20260504110457 | 2 | 213 | 0.0 | 0.0 | 0.00 | 0.00 | 0.00 | 87 | 1014.3 |
| 20260504100614 | 1 | 213 | 0.0 | 0.0 | 0.00 | 0.00 | 0.00 | 87 | 1014.1 |
| 20260504081629 | 2 | 213 | 0.0 | 0.0 | 0.00 | 0.00 | 0.00 | 83 | 1014.1 |
| 20260504081545 | 2 | 0 | 0.0 | 0.0 | 0.00 | 0.00 | 0.00 | 82 | 1014.3 |
| 20260504081107 | 2 | 213 | 0.0 | 0.0 | 0.00 | 0.00 | 0.00 | 82 | 1014.1 |
| 20260504080602 | 2 | 213 | 0.0 | 0.0 | 0.00 | 0.00 | 0.00 | 82 | 1014.1 |
| 20260504050211 | 4 | 213 | 0.0 | 0.0 | 0.00 | 0.00 | 0.00 | 73 | 1014.1 |
| 20260504045711 | 4 | 213 | 0.0 | 0.0 | 0.00 | 0.00 | 0.00 | 73 | 1014.2 |
| 20260504045421 | 4 | 213 | 0.0 | 0.0 | 0.00 | 0.00 | 0.00 | 73 | 1014.0 |
| 20260504044645 | 5 | 213 | 0.0 | 0.0 | 0.00 | 0.00 | 0.00 | 71 | 1013.9 |
| 20260504044554 | 4 | 0 | 0.0 | 0.0 | 0.00 | 0.00 | 0.00 | 70 | 1014.2 |
| 20260504044139 | 5 | 213 | 0.0 | 0.0 | 0.00 | 0.00 | 0.00 | 71 | 1013.9 |
| 20260504043620 | 5 | 213 | 0.0 | 0.0 | 0.00 | 0.00 | 0.00 | 72 | 1014.0 |
| 20260504043113 | 5 | 213 | 0.0 | 0.0 | 0.00 | 0.00 | 0.00 | 72 | 1014.1 |
| 20260504043047 | 4 | 0 | 0.0 | 0.0 | 0.00 | 0.00 | 0.00 | 72 | 1014.2 |
| 20260504042832 | 5 | 213 | 0.0 | 0.0 | 0.00 | 0.00 | 0.00 | 72 | 1013.9 |
| 20260504042058 | 5 | 213 | 0.0 | 0.0 | 0.00 | 0.00 | 0.00 | 72 | 1013.9 |
| 20260504041557 | 5 | 213 | 0.0 | 0.0 | 0.00 | 0.00 | 0.00 | 73 | 1013.8 |
| 20260504041537 | 5 | 0 | 0.0 | 0.0 | 0.00 | 0.00 | 0.00 | 72 | 1014.0 |
| 20260504041049 | 5 | 213 | 0.0 | 0.0 | 0.00 | 0.00 | 0.00 | 72 | 1013.8 |
| 20260504040545 | 5 | 213 | 0.0 | 0.0 | 0.00 | 0.00 | 0.00 | 71 | 1013.7 |
| 20260504040045 | 5 | 0 | 0.0 | 0.0 | 0.00 | 0.00 | 0.00 | 71 | 1013.9 |
| 20260504035537 | 5 | 213 | 0.0 | 0.0 | 0.00 | 0.00 | 0.00 | 71 | 1013.6 |
| 20260504035038 | 6 | 213 | 0.0 | 0.0 | 0.00 | 0.00 | 0.00 | 68 | 1013.6 |
| 20260504034551 | 6 | 0 | 0.0 | 3.2 | 0.00 | 0.00 | 0.00 | 66 | 1013.7 |
| 20260504034533 | 6 | 213 | 0.0 | 3.2 | 0.00 | 0.00 | 0.00 | 66 | 1013.5 |
| 20260504034023 | 7 | 213 | 0.0 | 3.2 | 0.00 | 0.00 | 0.00 | 63 | 1013.5 |
| 20260504033518 | 6 | 213 | 0.0 | 0.0 | 0.00 | 0.00 | 0.00 | 65 | 1013.6 |
| 20260504033236 | 6 | 213 | 0.0 | 0.0 | 0.00 | 0.00 | 0.00 | 65 | 1013.3 |
| 20260504033054 | 6 | 0 | 0.0 | 0.0 | 0.00 | 0.00 | 0.00 | 64 | 1013.5 |
| 20260504032504 | 7 | 213 | 0.0 | 0.0 | 0.00 | 0.00 | 0.00 | 64 | 1013.4 |
| 20260504031958 | 8 | 213 | 0.0 | 0.0 | 0.00 | 0.00 | 0.00 | 58 | 1013.4 |
| 20260504031540 | 8 | 0 | 0.0 | 0.0 | 0.00 | 0.00 | 0.00 | 57 | 1013.6 |
| 20260504031435 | 8 | 213 | 0.0 | 0.0 | 0.00 | 0.00 | 0.00 | 57 | 1013.4 |
| 20260504030934 | 8 | 213 | 0.0 | 0.0 | 0.00 | 0.00 | 0.00 | 55 | 1013.4 |
| 20260504030426 | 8 | 213 | 0.0 | 0.0 | 0.00 | 0.00 | 0.00 | 57 | 1013.4 |
| 20260504030038 | 8 | 0 | 0.0 | 0.0 | 0.00 | 0.00 | 0.00 | 56 | 1013.5 |
| 20260504025916 | 8 | 213 | 0.0 | 0.0 | 0.00 | 0.00 | 0.00 | 56 | 1013.3 |
| 20260504025411 | 8 | 213 | 0.0 | 0.0 | 0.00 | 0.00 | 0.00 | 56 | 1013.3 |
| 20260504024546 | 8 | 0 | 0.0 | 0.0 | 0.00 | 0.00 | 0.00 | 52 | 1013.6 |
| 20260504024401 | 9 | 213 | 0.0 | 0.0 | 0.00 | 0.00 | 0.00 | 53 | 1013.4 |
| 20260504024128 | 9 | 213 | 0.0 | 0.0 | 0.00 | 0.00 | 0.00 | 51 | 1013.3 |
| 20260504023341 | 9 | 213 | 0.0 | 1.6 | 0.00 | 0.00 | 0.00 | 51 | 1013.3 |
| 20260504023042 | 9 | 0 | 0.0 | 1.6 | 0.00 | 0.00 | 0.00 | 50 | 1013.6 |
| 20260504022835 | 10 | 213 | 0.0 | 1.6 | 0.00 | 0.00 | 0.00 | 50 | 1013.4 |
| 20260504022332 | 10 | 213 | 0.0 | 0.0 | 0.00 | 0.00 | 0.00 | 51 | 1013.5 |
| 20260504022047 | 10 | 213 | 0.0 | 0.0 | 0.00 | 0.00 | 0.00 | 49 | 1013.5 |
| 20260504021549 | 10 | 0 | 0.0 | 3.2 | 0.00 | 0.00 | 0.00 | 50 | 1013.6 |
| 20260504021324 | 10 | 213 | 0.0 | 1.6 | 0.00 | 0.00 | 0.00 | 48 | 1013.5 |
| 20260504020822 | 10 | 213 | 0.0 | 1.6 | 0.00 | 0.00 | 0.00 | 48 | 1013.4 |
| 20260504020307 | 10 | 213 | 0.0 | 4.8 | 0.00 | 0.00 | 0.00 | 47 | 1013.3 |
| 20260504020040 | 10 | 0 | 0.0 | 4.8 | 0.00 | 0.00 | 0.00 | 46 | 1013.5 |
| 20260504015801 | 10 | 213 | 0.0 | 4.8 | 0.00 | 0.00 | 0.00 | 47 | 1013.3 |
| 20260504015255 | 11 | 213 | 0.0 | 4.8 | 0.00 | 0.00 | 0.00 | 45 | 1013.3 |
| 20260504014750 | 11 | 213 | 1.6 | 4.8 | 0.00 | 0.00 | 0.00 | 45 | 1013.1 |
| 20260504014539 | 11 | 213 | 0.0 | 6.4 | 0.00 | 0.00 | 0.00 | 45 | 1013.4 |
| 20260504014238 | 11 | 213 | 1.6 | 6.4 | 0.00 | 0.00 | 0.00 | 44 | 1013.3 |
| 20260504013733 | 11 | 213 | 3.2 | 6.4 | 0.00 | 0.00 | 0.00 | 43 | 1013.0 |
| 20260504013228 | 11 | 213 | 3.2 | 6.4 | 0.00 | 0.00 | 0.00 | 44 | 1013.0 |
| 20260504013042 | 11 | 212 | 0.0 | 9.7 | 0.00 | 0.00 | 0.00 | 43 | 1013.3 |
| 20260504012722 | 11 | 212 | 1.6 | 9.7 | 0.00 | 0.00 | 0.00 | 43 | 1013.0 |
| 20260504012218 | 11 | 212 | 1.6 | 9.7 | 0.00 | 0.00 | 0.00 | 44 | 1013.0 |
| 20260504011713 | 11 | 239 | 3.2 | 6.4 | 0.00 | 0.00 | 0.00 | 45 | 1012.9 |
| 20260504011545 | 11 | 239 | 1.6 | 6.4 | 0.00 | 0.00 | 0.00 | 44 | 1013.3 |
| 20260504011209 | 11 | 239 | 3.2 | 6.4 | 0.00 | 0.00 | 0.00 | 44 | 1013.0 |
| 20260504010707 | 11 | 239 | 1.6 | 6.4 | 0.00 | 0.00 | 0.00 | 44 | 1013.0 |
| 20260504010159 | 11 | 239 | 1.6 | 6.4 | 0.00 | 0.00 | 0.00 | 44 | 1013.0 |
| 20260504010053 | 11 | 239 | 1.6 | 8.0 | 0.00 | 0.00 | 0.00 | 44 | 1013.2 |
| 20260504005653 | 11 | 214 | 0.0 | 3.2 | 0.00 | 0.00 | 0.00 | 43 | 1012.9 |
| 20260504005151 | 12 | 214 | 0.0 | 4.8 | 0.00 | 0.00 | 0.00 | 43 | 1012.8 |
| 20260504004645 | 12 | 214 | 1.6 | 6.4 | 0.00 | 0.00 | 0.00 | 42 | 1012.7 |
| 20260504004550 | 12 | 214 | 0.0 | 8.0 | 0.00 | 0.00 | 0.00 | 42 | 1013.0 |
| 20260504004140 | 12 | 213 | 1.6 | 6.4 | 0.00 | 0.00 | 0.00 | 42 | 1012.7 |
| 20260504003638 | 12 | 215 | 0.0 | 6.4 | 0.00 | 0.00 | 0.00 | 41 | 1012.7 |
| 20260504003129 | 12 | 215 | 1.6 | 6.4 | 0.00 | 0.00 | 0.00 | 40 | 1012.5 |
| 20260504003039 | 12 | 0 | 0.0 | 6.4 | 0.00 | 0.00 | 0.00 | 40 | 1012.7 |
| 20260504002624 | 13 | 215 | 1.6 | 6.4 | 0.00 | 0.00 | 0.00 | 40 | 1012.4 |
| 20260504002120 | 13 | 215 | 1.6 | 6.4 | 0.00 | 0.00 | 0.00 | 39 | 1012.4 |
| 20260504001619 | 13 | 215 | 1.6 | 6.4 | 0.00 | 0.00 | 0.00 | 39 | 1012.1 |
| 20260504001605 | 12 | 214 | 0.0 | 8.0 | 0.00 | 0.00 | 0.00 | 38 | 1012.6 |
| 20260504001109 | 13 | 215 | 1.6 | 8.0 | 0.00 | 0.00 | 0.00 | 39 | 1012.2 |
| 20260504000605 | 13 | 215 | 0.0 | 8.0 | 0.00 | 0.00 | 0.00 | 38 | 1012.0 |
| 20260504000053 | 13 | 215 | 1.6 | 6.4 | 0.00 | 0.00 | 0.00 | 38 | 1012.1 |
| 20260504000048 | 13 | 214 | 0.0 | 6.4 | 0.00 | 0.00 | 0.00 | 38 | 1012.3 |
| 20260503235820 | 13 | 215 | 1.6 | 9.7 | 0.00 | 0.00 | 0.00 | 38 | 1012.0 |
| 20260503235256 | 14 | 215 | 3.2 | 9.7 | 0.00 | 0.00 | 0.00 | 37 | 1012.0 |
| 20260503234753 | 14 | 207 | 3.2 | 8.0 | 0.00 | 0.00 | 0.00 | 36 | 1011.9 |
| 20260503234543 | 13 | 207 | 1.6 | 8.0 | 0.00 | 0.00 | 0.00 | 36 | 1012.2 |
| 20260503234258 | 14 | 236 | 3.2 | 12.9 | 0.00 | 0.00 | 0.00 | 37 | 1012.0 |
| 20260503233529 | 14 | 283 | 3.2 | 12.9 | 0.00 | 0.00 | 0.00 | 36 | 1011.8 |
| 20260503233039 | 14 | 263 | 3.2 | 16.1 | 0.00 | 0.00 | 0.00 | 35 | 1012.1 |
| 20260503233022 | 14 | 304 | 3.2 | 14.5 | 0.00 | 0.00 | 0.00 | 36 | 1011.8 |
| 20260503232517 | 14 | 216 | 6.4 | 12.9 | 0.00 | 0.00 | 0.00 | 36 | 1011.9 |
| 20260503232016 | 15 | 273 | 6.4 | 12.9 | 0.00 | 0.00 | 0.00 | 35 | 1011.7 |
| 20260503231542 | 15 | 287 | 3.2 | 16.1 | 0.00 | 0.00 | 0.00 | 34 | 1012.0 |
| 20260503231515 | 15 | 290 | 4.8 | 16.1 | 0.00 | 0.00 | 0.00 | 35 | 1011.8 |
| 20260503231008 | 15 | 280 | 4.8 | 16.1 | 0.00 | 0.00 | 0.00 | 34 | 1011.7 |
| 20260503230503 | 15 | 222 | 3.2 | 22.5 | 0.00 | 0.00 | 0.00 | 34 | 1011.7 |
| 20260503230040 | 15 | 234 | 4.8 | 25.7 | 0.00 | 0.00 | 0.00 | 34 | 1011.9 |
| 20260503225958 | 15 | 234 | 6.4 | 25.7 | 0.00 | 0.00 | 0.00 | 35 | 1011.6 |
| 20260503225457 | 15 | 300 | 9.7 | 20.9 | 0.00 | 0.00 | 0.00 | 34 | 1011.5 |
| 20260503224949 | 15 | 261 | 11.3 | 20.9 | 0.00 | 0.00 | 0.00 | 33 | 1011.5 |
| 20260503224538 | 15 | 295 | 6.4 | 17.7 | 0.00 | 0.00 | 0.00 | 33 | 1011.8 |
| 20260503224445 | 15 | 178 | 6.4 | 17.7 | 0.00 | 0.00 | 0.00 | 34 | 1011.6 |
| 20260503224159 | 15 | 235 | 3.2 | 14.5 | 0.00 | 0.00 | 0.00 | 34 | 1011.6 |
| 20260503223442 | 15 | 251 | 6.4 | 14.5 | 0.00 | 0.00 | 0.00 | 34 | 1011.7 |
| 20260503223044 | 15 | 189 | 3.2 | 16.1 | 0.00 | 0.00 | 0.00 | 34 | 1012.0 |
| 20260503222937 | 15 | 200 | 3.2 | 16.1 | 0.00 | 0.00 | 0.00 | 34 | 1011.7 |
| 20260503222434 | 15 | 277 | 6.4 | 16.1 | 0.00 | 0.00 | 0.00 | 33 | 1011.7 |
| 20260503221929 | 15 | 241 | 6.4 | 16.1 | 0.00 | 0.00 | 0.00 | 34 | 1011.6 |
| 20260503221547 | 15 | 304 | 6.4 | 19.3 | 0.00 | 0.00 | 0.00 | 33 | 1011.8 |
| 20260503221426 | 15 | 202 | 6.4 | 14.5 | 0.00 | 0.00 | 0.00 | 35 | 1011.6 |
| 20260503220926 | 15 | 242 | 6.4 | 16.1 | 0.00 | 0.00 | 0.00 | 33 | 1011.6 |
| 20260503220423 | 16 | 294 | 9.7 | 16.1 | 0.00 | 0.00 | 0.00 | 34 | 1011.7 |
| 20260503215918 | 16 | 290 | 8.0 | 19.3 | 0.00 | 0.00 | 0.00 | 32 | 1011.6 |
| 20260503215415 | 16 | 234 | 9.7 | 19.3 | 0.00 | 0.00 | 0.00 | 33 | 1011.6 |
| 20260503214911 | 16 | 282 | 12.9 | 19.3 | 0.00 | 0.00 | 0.00 | 32 | 1011.6 |
| 20260503214537 | 15 | 300 | 8.0 | 24.1 | 0.00 | 0.00 | 0.00 | 32 | 1011.8 |
| 20260503214407 | 16 | 233 | 11.3 | 24.1 | 0.00 | 0.00 | 0.00 | 31 | 1011.6 |
| 20260503213901 | 15 | 270 | 9.7 | 24.1 | 0.00 | 0.00 | 0.00 | 32 | 1011.6 |
| 20260503213358 | 15 | 313 | 11.3 | 24.1 | 0.00 | 0.00 | 0.00 | 33 | 1011.7 |
| 20260503213040 | 15 | 286 | 8.0 | 24.1 | 0.00 | 0.00 | 0.00 | 31 | 1011.8 |
| 20260503212853 | 16 | 288 | 9.7 | 24.1 | 0.00 | 0.00 | 0.00 | 32 | 1011.5 |
| 20260503212347 | 16 | 261 | 9.7 | 25.7 | 0.00 | 0.00 | 0.00 | 31 | 1011.6 |
| 20260503211840 | 16 | 263 | 9.7 | 25.7 | 0.00 | 0.00 | 0.00 | 33 | 1011.5 |
| 20260503211559 | 16 | 263 | 8.0 | 25.7 | 0.00 | 0.00 | 0.00 | 30 | 1011.7 |
| 20260503211335 | 16 | 289 | 8.0 | 24.1 | 0.00 | 0.00 | 0.00 | 33 | 1011.4 |
| 20260503211051 | 16 | 290 | 8.0 | 24.1 | 0.00 | 0.00 | 0.00 | 31 | 1011.5 |
| 20260503210330 | 16 | 281 | 11.3 | 24.1 | 0.00 | 0.00 | 0.00 | 31 | 1011.5 |
| 20260503210041 | 16 | 290 | 12.9 | 25.7 | 0.00 | 0.00 | 0.00 | 31 | 1011.7 |
| 20260503205827 | 16 | 294 | 12.9 | 24.1 | 0.00 | 0.00 | 0.00 | 32 | 1011.4 |
| 20260503205322 | 16 | 285 | 6.4 | 22.5 | 0.00 | 0.00 | 0.00 | 32 | 1011.7 |